Flag for U.S.A. Weather past 2 weeks in Augusta, Georgia, U.S.A.

Now
71 °F

Sunny.


Feels Like: 75 °F
Forecast: 61 / 86 °F
Wind: 9 mph from East

Location: Daniel Field

Current Time: May 24, 2015 at 9:36:22 AM

Latest Report: May 24, 2015 at 8:53 AM


Visibility: 10 mi

Pressure: 30.36 "Hg

Humidity: 63%

Dew point: 58 °F

Location of AugustaLocation

Historic Weather in Augusta — Graph

°F

Augusta temperature yesterday

Maximum temperature yesterday: 85 °F (at 4:53 PM)
Minimum temperature yesterday: 62 °F (at 5:53 AM)
Average temperature yesterday: 74 °F

Past Weeks' High & Low Weather Summary

 TemperatureHumidityPressure
High95 °F (May 11, 4:53 PM)91% (May 18, 9:53 PM)30.39 "Hg (May 18, 9:53 PM)
Low62 °F (May 22, 5:53 AM)23% (May 23, 4:53 PM)29.83 "Hg (May 21, 4:53 AM)
Average77 °F59%30.13 "Hg
* Reported May 9 7:53 AM — May 24 7:53 AM, Augusta, Weather by CustomWeather, © 2015

Note: Actual official high and low records may vary slightly from our data, if they occured in-between our weather recording intervals... More about our weather records

Advertising

Augusta weather history for previous 24 hours

 ConditionsComfort  
Time TempWeatherWind HumidityBarometerVisibility
7:53 AM
Sun, May 24
67 °FSunny.7 mph71%30.36 "Hg10 mi
6:53 AM66 °FClear.6 mph73%30.36 "Hg10 mi
5:53 AM66 °FClear.6 mph73%30.34 "Hg10 mi
4:53 AM66 °FClear.6 mph75%30.33 "Hg10 mi
3:53 AM67 °FClear.5 mph73%30.32 "Hg10 mi
2:53 AM67 °FClear.5 mph73%30.31 "Hg10 mi
1:53 AM68 °FClear.5 mph68%30.32 "Hg10 mi
12:53 AM69 °FClear.5 mph63%30.34 "Hg10 mi
11:53 PM
Sat, May 23
71 °FClear.6 mph53%30.33 "Hg10 mi
10:53 PM74 °FClear.8 mph45%30.32 "Hg10 mi
9:53 PM76 °FClear.7 mph35%30.30 "Hg10 mi
8:53 PM78 °FSunny.6 mph30%30.30 "Hg10 mi
7:53 PM81 °FSunny.6 mph25%30.30 "Hg10 mi
6:53 PM83 °FSunny.8 mph26%30.29 "Hg10 mi
5:53 PM84 °FSunny.7 mph26%30.30 "Hg10 mi
4:53 PM85 °FSunny.7 mph23%30.31 "Hg10 mi
3:53 PM84 °FSunny.6 mph25%30.32 "Hg10 mi
2:53 PM84 °FSunny.7 mph27%30.34 "Hg10 mi
1:53 PM83 °FSunny.12 mph27%30.35 "Hg10 mi
12:53 PM81 °FSunny.10 mph28%30.37 "Hg10 mi
11:53 AM80 °FSunny.12 mph29%30.38 "Hg10 mi
10:53 AM78 °FPassing clouds.9 mph37%30.38 "Hg10 mi
9:53 AM72 °FSunny.8 mph55%30.39 "Hg10 mi
Weather by CustomWeather, © 2015

See weather overviewHow to use our weather pages